1510059600.48,19814,13.31,73788.0,2.63,-40.29,-40.21,0,*77
1510059601.76,19815,13.31,73784.3,2.63,-40.09,-40.09,0,*7E
1510059603.03,19816,13.25,73780.5,2.63,-40.29,-40.29,0,*7D
1510059604.29,19817,13.31,73788.3,2.63,-40.21,-40.29,0,*74
1510059605.56,19818,13.31,73784.8,2.63,-40.21,-40.29,0,*7B
1510059606.81,19819,13.31,73790.8,2.63,-40.47,-40.41,0,*74
1510059608.09,19820,13.31,73788.5,2.63,-40.09,-40.09,0,*78
1510059609.3,19821,13.25,73780.8,2.63,-40.47,-40.47,0,*79
1510059610.5,19822,13.31,73784.5,2.61,-40.03,-40.03,0,*78
1510059611.73,19823,13.31,73788.0,2.65,-40.41,-40.53,0,*7E
1510059613.0,19824,13.25,73782.3,2.63,-40.41,-40.29,0,*72
1510059614.25,19825,13.31,73786.5,2.63,-40.65,-40.97,0,*70
1510059615.48,19826,13.31,73784.0,2.61,-40.41,-40.47,0,*7A
1510059616.73,19827,13.31,73786.8,2.61,-40.59,-40.97,0,*7F
1510059617.99,19828,13.31,73784.5,2.59,-40.85,-40.91,0,*7C
1510059619.21,19829,13.31,73782.8,2.61,-39.91,-40.21,0,*76
1510059620.44,19830,13.31,73784.0,2.59,-40.35,-40.47,0,*75
1510059621.69,19831,13.31,73786.8,2.61,-40.41,-40.41,0,*7A
1510059622.94,19832,13.31,73784.8,2.61,-40.41,-40.29,0,*77
1510059624.18,19833,13.31,73784.3,2.61,-40.79,-40.79,0,*78
1510059625.42,19834,13.31,73780.5,2.61,-40.21,-40.29,0,*77
1510059626.65,19835,13.31,73780.8,2.59,-40.35,-40.53,0,*75
1510059627.87,19836,13.31,73786.8,2.59,-40.35,-40.47,0,*73
1510059629.11,19837,13.31,73782.5,2.61,-40.29,-40.29,0,*7C
1510059630.37,19838,13.31,73784.0,2.59,-40.15,-40.29,0,*77
1510059631.63,19839,13.31,73784.0,2.61,-40.41,-40.41,0,*72
1510059632.82,19840,13.31,73782.8,2.61,-40.65,-40.65,0,*7C
1510059634.04,19841,13.31,73782.8,2.59,-40.65,-40.73,0,*71
1510059635.27,19842,13.31,73780.3,2.59,-41.03,-41.11,0,*76
1510059636.49,19843,13.31,73786.5,2.59,-40.73,-40.65,0,*73
1510059637.71,19844,13.31,73782.8,2.59,-40.35,-40.47,0,*76
1510059638.94,19845,13.31,73784.0,2.59,-40.47,-40.53,0,*77
1510059640.19,19846,13.31,73782.8,2.59,-39.97,-40.15,0,*75
1510059641.44,19847,13.31,73780.0,2.59,-40.15,-40.29,0,*7F
1510059642.7,19848,13.31,73784.3,2.61,-40.41,-40.41,0,*74
1510059643.92,19849,13.31,73786.8,2.59,-40.35,-40.35,0,*7E
1510059645.17,19850,13.31,73784.8,2.59,-40.73,-40.85,0,*7F
1510059646.42,19851,13.31,73784.8,2.59,-40.65,-40.85,0,*79
1510059647.62,19852,13.31,73784.5,2.61,-39.91,-40.03,0,*7A
1510059648.9,19853,13.31,73782.3,2.59,-39.79,-39.97,0,*75
1510059650.16,19854,13.31,73786.3,2.61,-40.41,-40.41,0,*79
1510059651.38,19855,13.31,73786.3,2.59,-40.65,-40.65,0,*73
1510059652.6,19856,13.31,73782.8,2.59,-40.35,-40.35,0,*70
1510059653.84,19857,13.31,73784.5,2.61,-39.97,-39.97,0,*7A
1510059655.11,19858,13.31,73786.5,2.59,-39.97,-39.97,0,*7E
1510059656.37,19859,13.31,73786.0,2.61,-39.71,-39.71,0,*74
1510059657.62,19860,13.31,73786.8,2.59,-39.91,-39.97,0,*73
1510059658.91,19861,13.31,73786.0,2.59,-39.79,-39.71,0,*7C
1510059660.16,19862,13.31,73786.8,2.61,-40.09,-40.09,0,*7C
1510059661.42,19863,13.31,73788.3,2.61,-40.09,-40.21,0,*77
1510059662.64,19864,13.31,73790.0,2.61,-40.03,-40.09,0,*70
1510059663.89,19865,13.31,73790.8,2.61,-40.29,-40.41,0,*75
1510059665.08,19866,13.31,73790.8,2.61,-40.53,-40.47,0,*7D
1510059666.28,19867,13.31,73790.3,2.61,-39.91,-40.03,0,*7C
1510059667.51,19868,13.31,73788.5,2.59,-40.15,-40.35,0,*7F
1510059668.79,19869,13.31,73788.5,2.59,-40.09,-40.29,0,*7E
1510059670.01,19870,13.31,73788.0,2.61,-40.09,-40.03,0,*75
1510059671.26,19871,13.31,73784.0,2.61,-40.29,-40.41,0,*70
1510059672.5,19872,13.31,73784.8,2.59,-41.03,-41.03,0,*76
1510059673.75,19873,13.31,73788.0,2.61,-40.41,-40.29,0,*72
1510059675.03,19874,13.31,73786.0,2.59,-39.79,-39.79,0,*70
1510059676.29,19875,13.31,73788.5,2.61,-40.09,-40.21,0,*70
1510059677.56,19876,13.31,73786.3,2.59,-40.29,-40.29,0,*72
1510059678.78,19877,13.31,73786.3,2.59,-40.47,-40.47,0,*73
1510059680.03,19878,13.31,73794.0,2.61,-40.41,-40.41,0,*77
1510059681.24,19879,13.31,73786.3,2.61,-39.85,-39.91,0,*73
1510059682.43,19880,13.31,73788.0,2.61,-40.03,-40.03,0,*70
1510059683.63,19881,13.31,73790.5,2.61,-39.91,-39.91,0,*71
1510059684.84,19882,13.31,73786.3,2.61,-39.85,-39.91,0,*77
1510059686.03,19883,13.31,73794.3,2.61,-40.03,-40.03,0,*73
1510059687.26,19884,13.31,73790.5,2.61,-39.47,-39.59,0,*7B
1510059688.45,19885,13.31,73788.0,2.61,-39.47,-39.47,0,*75
1510059689.65,19886,13.31,73788.3,2.61,-39.91,-40.03,0,*73
1510059690.86,19887,13.31,73788.3,2.61,-39.91,-39.91,0,*77
1510059692.09,19888,13.31,73788.0,2.63,-39.85,-39.91,0,*7F
1510059693.31,19889,13.31,73786.8,2.63,-39.85,-40.03,0,*7B
1510059694.54,19890,13.31,73788.3,2.63,-39.91,-39.91,0,*73
1510059695.78,19891,13.31,73790.0,2.63,-39.59,-39.47,0,*7D
1510059697.04,19892,13.31,73790.8,2.63,-39.91,-40.09,0,*7E
1510059698.29,19893,13.31,73786.3,2.65,-39.59,-39.53,0,*7C
1510059699.53,19894,13.31,73788.3,2.65,-39.85,-39.59,0,*70
1510059700.75,19895,13.31,73790.0,2.63,-39.85,-39.91,0,*73
1510059702.0,19896,13.31,73788.0,2.63,-39.85,-39.71,0,*7E
1510059703.21,19897,13.31,73788.0,2.65,-39.85,-39.85,0,*72
1510059704.42,19898,13.31,73792.5,2.63,-40.03,-40.03,0,*7B
1510059705.65,19899,13.31,73786.5,2.63,-39.91,-39.91,0,*7A
1510059706.88,19900,13.31,73788.8,2.65,-40.03,-39.97,0,*7E
1510059708.14,19901,13.31,73788.3,2.63,-40.21,-40.29,0,*72
1510059709.41,19902,13.31,73788.3,2.63,-40.29,-40.41,0,*77
1510059710.64,19903,13.31,73792.5,2.65,-39.65,-39.59,0,*71
1510059711.87,19904,13.31,73788.5,2.63,-40.03,-39.91,0,*7A
1510059713.12,19905,13.31,73788.8,2.63,-39.85,-39.71,0,*75
1510059714.32,19906,13.31,73786.5,2.65,-40.03,-40.15,0,*7C
1510059715.54,19907,13.31,73786.0,2.65,-40.21,-40.35,0,*7F
1510059716.81,19908,13.31,73786.5,2.63,-40.29,-40.09,0,*71
1510059718.02,19909,13.31,73784.8,2.63,-40.47,-40.47,0,*72
1510059719.29,19910,13.31,73784.5,2.63,-40.21,-40.41,0,*7C
1510059720.56,19911,13.31,73780.3,2.63,-40.29,-40.29,0,*7B
1510059721.78,19912,13.31,73784.0,2.63,-40.47,-40.47,0,*78
1510059723.05,19913,13.31,73782.8,2.63,-40.79,-40.97,0,*79
1510059724.32,19914,13.31,73786.3,2.63,-40.59,-40.59,0,*7E
1510059725.58,19915,13.31,73782.0,2.63,-41.03,-41.23,0,*7D
1510059726.84,19916,13.31,73786.8,2.63,-40.79,-40.79,0,*7C
1510059728.12,19917,13.31,73786.0,2.63,-41.23,-41.23,0,*7D
1510059729.37,19918,13.31,73784.0,2.59,-41.29,-41.35,0,*76
1510059730.64,19919,13.31,73780.8,2.59,-40.29,-40.29,0,*7A
1510059731.89,19920,13.31,73784.5,2.59,-40.73,-40.85,0,*79
1510059733.12,19921,13.31,73784.3,2.59,-41.03,-41.11,0,*72
1510059734.35,19922,13.31,73780.5,2.59,-41.11,-41.17,0,*74
1510059735.58,19923,13.31,73782.3,2.61,-40.97,-41.03,0,*74
1510059736.79,19924,13.31,73780.5,2.57,-41.03,-41.03,0,*7A
1510059737.98,19925,13.31,73784.5,2.57,-40.35,-40.53,0,*7B
1510059739.2,19926,13.31,73786.3,2.53,-40.15,-40.15,0,*7C
1510059740.43,19927,13.31,73780.8,2.57,-40.15,-40.29,0,*76
1510059741.63,19928,13.31,73786.8,2.57,-40.47,-40.53,0,*73
1510059742.82,19929,13.31,73784.5,2.57,-40.35,-40.47,0,*72
1510059744.08,19930,13.31,73788.3,2.57,-40.09,-40.09,0,*7F
1510059745.28,19931,13.31,73782.3,2.57,-40.47,-40.47,0,*7E
1510059746.48,19932,13.31,73786.0,2.57,-40.15,-40.15,0,*7D
1510059747.73,19933,13.31,73784.0,2.57,-39.97,-39.97,0,*7C
1510059748.92,19934,13.31,73782.0,2.57,-40.53,-40.65,0,*7E
1510059750.12,19935,13.31,73782.8,2.57,-40.53,-40.53,0,*7A
1510059751.31,19936,13.31,73786.8,2.57,-40.65,-40.53,0,*7C
1510059752.56,19937,13.31,73784.3,2.53,-40.21,-40.21,0,*7C
1510059753.76,19938,13.31,73786.8,2.57,-40.35,-40.53,0,*77
1510059754.95,19939,13.31,73788.3,2.57,-40.53,-40.53,0,*76
1510059756.2,19940,13.31,73784.0,2.57,-40.09,-40.29,0,*7A
1510059757.45,19941,13.31,73786.5,2.57,-40.09,-39.97,0,*70
1510059758.71,19942,13.31,73786.5,2.57,-40.09,-40.09,0,*7A
1510059759.96,19943,13.31,73788.0,2.57,-39.97,-40.09,0,*72
1510059761.22,19944,13.31,73788.5,2.57,-39.71,-39.71,0,*7C
1510059762.47,19945,13.31,73788.8,2.57,-39.97,-40.09,0,*74
1510059763.7,19946,13.31,73788.3,2.57,-39.91,-39.79,0,*78
1510059764.92,19947,13.31,73788.5,2.57,-40.29,-40.15,0,*70
1510059766.17,19948,13.31,73786.8,2.57,-40.09,-40.09,0,*70
1510059767.4,19949,13.31,73788.8,2.57,-39.91,-39.71,0,*7F
1510059768.6,19950,13.31,73784.3,2.57,-40.73,-40.53,0,*7B
1510059769.86,19951,13.38,73788.3,2.59,-40.15,-40.29,0,*79
1510059771.13,19952,13.31,73786.5,2.59,-39.97,-39.97,0,*75
1510059772.35,19953,13.31,73788.3,2.59,-40.35,-40.47,0,*71
1510059773.6,19954,13.31,73786.3,2.59,-39.65,-39.53,0,*76
1510059774.87,19955,13.31,73786.0,2.59,-39.97,-39.97,0,*72
1510059776.09,19956,13.31,73788.8,2.59,-40.65,-40.53,0,*74
1510059777.31,19957,13.31,73784.5,2.59,-40.65,-40.65,0,*70
1510059778.52,19958,13.31,73786.5,2.53,-40.15,-40.15,0,*75
1510059779.77,19959,13.31,73782.8,2.57,-39.97,-39.79,0,*70
1510059781.02,19960,13.31,73786.3,2.57,-39.71,-39.53,0,*7A
1510059782.26,19961,13.31,73786.3,2.57,-39.53,-39.53,0,*7B
1510059783.51,19962,13.31,73786.8,2.57,-39.97,-39.97,0,*78
1510059784.79,19963,13.31,73788.3,2.59,-39.71,-39.71,0,*77
1510059786.01,19964,13.31,73786.5,2.61,-39.85,-39.71,0,*70
1510059787.26,19965,13.31,73788.3,2.61,-39.41,-39.29,0,*74
1510059788.51,19966,13.31,73790.0,2.59,-39.53,-39.65,0,*77
1510059789.77,19967,13.31,73784.8,2.59,-40.15,-40.29,0,*7C
1510059791.05,19968,13.38,73790.5,2.59,-39.97,-40.09,0,*75
1510059792.3,19969,13.31,73786.5,2.59,-39.91,-39.79,0,*7B
1510059793.59,19970,13.31,73786.3,2.59,-39.79,-39.71,0,*7D
1510059794.79,19971,13.38,73786.0,2.61,-39.65,-39.65,0,*7F
1510059796.02,19972,13.38,73784.3,2.61,-39.91,-40.09,0,*73
1510059797.28,19973,13.31,73780.3,2.61,-40.41,-40.41,0,*7D
1510059798.52,19974,13.31,73784.5,2.61,-40.59,-40.79,0,*78
1510059799.74,19975,13.31,73782.3,2.61,-40.65,-40.59,0,*74
1510059801.02,19976,13.31,73786.5,2.59,-40.85,-40.85,0,*73
1510059802.27,19977,13.31,73786.3,2.59,-41.29,-41.35,0,*7F
1510059803.48,19978,13.31,73784.3,2.57,-40.91,-41.03,0,*79
1510059804.67,19979,13.31,73782.3,2.57,-40.53,-40.47,0,*77
1510059805.9,19980,13.31,73782.8,2.53,-40.97,-41.17,0,*79
1510059807.1,19981,13.31,73790.0,2.53,-40.53,-40.53,0,*71
1510059808.3,19982,13.38,73790.3,2.53,-40.03,-40.15,0,*75
1510059809.49,19983,13.31,73788.0,2.57,-40.73,-40.65,0,*70
1510059810.75,19984,13.31,73790.3,2.53,-39.79,-39.79,0,*74
1510059811.95,19985,13.31,73790.0,2.53,-40.73,-40.73,0,*75
1510059813.18,19986,13.31,73784.5,2.57,-40.09,-40.15,0,*7F
1510059814.43,19987,13.31,73790.0,2.53,-39.97,-39.79,0,*77
1510059815.63,19988,13.31,73790.3,2.57,-39.65,-39.47,0,*7C
1510059816.86,19989,13.31,73788.3,2.57,-40.15,-40.09,0,*70
1510059818.09,19990,13.31,73790.3,2.53,-39.03,-38.85,0,*7E
1510059819.35,19991,13.31,73792.5,2.57,-39.15,-39.15,0,*74
1510059820.59,19992,13.31,73794.5,2.57,-39.29,-39.15,0,*78
1510059821.86,19993,13.31,73794.3,2.59,-39.53,-39.53,0,*78
1510059823.13,19994,13.31,73790.5,2.59,-39.97,-39.97,0,*7F
1510059824.4,19995,13.38,73794.8,2.59,-39.97,-39.97,0,*7E
1510059825.68,19996,13.31,73792.3,2.59,-39.71,-39.53,0,*7D
1510059826.96,19997,13.31,73792.3,2.59,-40.09,-40.09,0,*7C
1510059828.22,19998,13.31,73788.3,2.61,-40.41,-40.59,0,*71
1510059829.44,19999,13.31,73788.3,2.59,-40.65,-40.53,0,*77
1510059830.71,20000,13.31,73790.5,2.59,-39.97,-40.29,0,*7A
1510059831.99,20001,13.31,73794.0,2.59,-39.79,-39.97,0,*70
1510059833.24,20002,13.38,73794.3,2.59,-39.65,-39.53,0,*76
1510059834.53,20003,13.31,73788.3,2.59,-39.79,-39.97,0,*72
1510059835.75,20004,13.31,73788.0,2.59,-40.35,-40.47,0,*70
1510059837.0,20005,13.31,73786.5,2.59,-40.15,-40.29,0,*7B
1510059838.26,20006,13.38,73790.0,2.59,-40.09,-40.15,0,*7A
1510059839.53,20007,13.38,73792.0,2.59,-39.53,-39.53,0,*76
1510059840.8,20008,13.31,73788.8,2.59,-39.97,-39.97,0,*79
1510059842.06,20009,13.38,73792.0,2.59,-40.15,-40.29,0,*77
1510059843.34,20010,13.31,73790.0,2.59,-40.09,-39.79,0,*79
1510059844.6,20011,13.31,73788.5,2.59,-39.79,-39.65,0,*7C
1510059845.84,20012,13.38,73788.0,2.59,-39.53,-39.35,0,*72
1510059847.09,20013,13.31,73788.0,2.59,-39.35,-39.29,0,*7E
1510059848.29,20014,13.38,73794.8,2.61,-39.85,-39.91,0,*7A
1510059849.51,20015,13.31,73788.5,2.59,-40.47,-40.47,0,*75
1510059850.76,20016,13.38,73794.3,2.61,-40.29,-40.09,0,*7F
1510059852.0,20017,13.38,73792.5,2.61,-40.29,-40.41,0,*72
1510059853.22,20018,13.38,73788.3,2.59,-40.53,-40.65,0,*7D
1510059854.48,20019,13.31,73786.0,2.57,-40.85,-40.85,0,*77
1510059855.71,20020,13.38,73788.8,2.57,-40.09,-40.15,0,*70
1510059856.92,20021,13.31,73786.5,2.57,-40.29,-40.35,0,*71
1510059858.12,20022,13.38,73790.8,2.57,-40.47,-40.47,0,*7F
1510059859.31,20023,13.38,73790.8,2.57,-40.65,-40.65,0,*7E
1510059860.51,20024,13.31,73788.3,2.57,-40.03,-40.15,0,*7E
1510059861.72,20025,13.31,73784.5,2.57,-40.15,-40.15,0,*78
1510059862.98,20026,13.38,73788.8,2.57,-39.79,-39.79,0,*7B
1510059864.23,20027,13.31,73784.5,2.57,-40.09,-39.97,0,*73
1510059865.46,20028,13.38,73786.5,2.57,-39.71,-39.65,0,*70
1510059866.66,20029,13.38,73790.5,2.57,-40.47,-40.53,0,*71
1510059867.89,20030,13.31,73786.5,2.57,-39.91,-39.97,0,*7A
1510059869.09,20031,13.31,73788.3,2.57,-40.47,-40.53,0,*78
1510059870.31,20032,13.31,73784.3,2.53,-39.97,-39.85,0,*79
1510059871.57,20033,13.38,73788.0,2.57,-40.09,-40.09,0,*7F
1510059872.81,20034,13.38,73790.3,2.57,-40.29,-40.29,0,*78
1510059874.04,20035,13.31,73786.5,2.57,-40.09,-40.15,0,*74
1510059875.3,20036,13.38,73792.8,2.53,-40.41,-40.59,0,*77
1510059876.5,20037,13.31,73790.3,2.57,-40.47,-40.53,0,*7E
1510059877.75,20038,13.38,73792.5,2.53,-40.59,-40.41,0,*79
1510059878.95,20039,13.38,73790.3,2.53,-40.73,-40.73,0,*71
1510059880.14,20040,13.38,73792.3,2.57,-40.65,-40.65,0,*7B
1510059881.34,20041,13.38,73792.8,2.57,-40.65,-40.73,0,*7D
1510059882.58,20042,13.31,73790.3,2.53,-40.21,-40.21,0,*7D
1510059883.78,20043,13.38,73794.0,2.53,-40.53,-40.53,0,*7C
1510059885.0,20044,13.38,73794.5,2.53,-40.53,-40.41,0,*78
1510059886.25,20045,13.38,73794.0,2.51,-41.17,-41.23,0,*7F
1510059887.52,20046,13.38,73794.0,2.51,-40.79,-40.79,0,*7B
1510059888.72,20047,13.38,73790.8,2.49,-40.47,-40.47,0,*73
1510059889.97,20048,13.38,73794.0,2.49,-40.29,-40.21,0,*74
1510059891.22,20049,13.31,73790.3,2.49,-40.85,-40.97,0,*7E
1510059892.44,20050,13.38,73794.3,2.51,-40.65,-40.65,0,*7C
1510059893.66,20051,13.38,73790.5,2.49,-40.79,-40.65,0,*79
1510059894.87,20052,13.31,73788.0,2.49,-41.03,-41.17,0,*72
1510059896.1,20053,13.38,73792.0,2.49,-41.17,-41.23,0,*71
1510059897.36,20054,13.38,73792.5,2.49,-40.85,-40.97,0,*72
1510059898.61,20055,13.38,73790.5,2.47,-41.11,-41.23,0,*7F
1510059899.87,20056,13.38,73790.8,2.45,-41.23,-41.23,0,*7F
1510059901.09,20057,13.38,73790.3,2.47,-40.73,-40.73,0,*7C
1510059902.29,20058,13.38,73792.3,2.45,-40.47,-40.53,0,*74
1510059903.49,20059,13.38,73788.0,2.45,-40.35,-40.47,0,*75
1510059904.71,20060,13.38,73790.0,2.47,-40.65,-40.73,0,*7F
1510059905.93,20061,13.38,73790.3,2.45,-40.85,-40.73,0,*72
1510059907.17,20062,13.38,73788.0,2.45,-40.85,-40.91,0,*7D
1510059908.36,20063,13.38,73786.5,2.45,-40.73,-40.73,0,*79
1510059909.62,20064,13.31,73786.3,2.43,-40.79,-40.91,0,*7E
1510059910.85,20065,13.38,73788.0,2.43,-40.03,-40.03,0,*79
1510059912.1,20066,13.38,73788.0,2.43,-40.21,-40.35,0,*7F
1510059913.33,20067,13.38,73786.3,2.45,-39.71,-39.91,0,*73
1510059914.58,20068,13.38,73786.8,2.45,-39.71,-39.53,0,*72
1510059915.81,20069,13.38,73790.8,2.45,-40.09,-40.15,0,*7E
1510059917.03,20070,13.38,73786.3,2.45,-40.29,-40.35,0,*76
1510059918.29,20071,13.38,73786.0,2.47,-40.09,-40.15,0,*75
1510059919.49,20072,13.38,73788.3,2.45,-39.91,-39.85,0,*7C
1510059920.72,20073,13.38,73788.3,2.47,-39.85,-39.85,0,*7A
1510059921.95,20074,13.38,73788.0,2.45,-39.71,-39.65,0,*7A
1510059923.23,20075,13.38,73788.3,2.47,-39.71,-39.53,0,*7C
1510059924.49,20076,13.38,73786.0,2.47,-40.15,-40.29,0,*70
1510059925.72,20077,13.38,73790.0,2.47,-39.91,-39.91,0,*7E
1510059927.0,20078,13.38,73788.3,2.47,-39.71,-39.71,0,*71
1510059928.28,20079,13.38,73790.5,2.47,-40.09,-40.29,0,*72
1510059929.53,20080,13.38,73784.0,2.47,-39.65,-39.53,0,*73
1510059930.78,20081,13.38,73788.3,2.47,-39.71,-39.65,0,*72
1510059932.02,20082,13.38,73790.0,2.47,-39.53,-39.47,0,*71
1510059933.26,20083,13.38,73790.8,2.47,-39.85,-39.65,0,*7B
1510059934.51,20084,13.38,73786.5,2.47,-39.65,-39.53,0,*77
1510059935.77,20085,13.38,73790.8,2.47,-39.53,-39.53,0,*73
1510059936.98,20086,13.38,73788.0,2.49,-39.91,-39.85,0,*7B
1510059938.22,20087,13.38,73790.3,2.49,-39.79,-39.65,0,*72
1510059939.47,20088,13.38,73784.5,2.51,-39.85,-39.79,0,*7A
1510059940.72,20089,13.38,73788.5,2.49,-40.29,-40.41,0,*7F
1510059941.98,20090,13.31,73784.5,2.51,-39.65,-39.79,0,*7D
1510059943.21,20091,13.38,73788.3,2.49,-39.47,-39.29,0,*70
1510059944.46,20092,13.38,73788.5,2.49,-39.59,-39.41,0,*72
1510059945.72,20093,13.38,73790.5,2.51,-39.59,-39.47,0,*7C
1510059946.98,20094,13.38,73784.5,2.51,-39.59,-39.65,0,*7B
1510059948.23,20095,13.38,73786.5,2.51,-39.65,-39.59,0,*7A
1510059949.49,20096,13.38,73788.3,2.51,-39.65,-39.59,0,*79
1510059950.69,20097,13.38,73788.3,2.53,-39.85,-39.85,0,*75
1510059951.95,20098,13.38,73790.3,2.53,-39.71,-39.79,0,*72
1510059953.18,20099,13.38,73790.5,2.53,-40.03,-40.21,0,*7B
1510059954.39,20100,13.38,73788.8,2.53,-40.15,-40.15,0,*7A
1510059955.63,20101,13.38,73790.3,2.53,-40.15,-40.41,0,*7A
1510059956.83,20102,13.38,73788.5,2.53,-40.03,-40.15,0,*7F
1510059958.09,20103,13.38,73786.8,2.53,-39.79,-39.79,0,*79
1510059959.35,20104,13.38,73792.0,2.51,-39.79,-39.85,0,*7F
1510059960.63,20105,13.38,73790.5,2.51,-39.59,-39.59,0,*7D
1510059961.89,20106,13.38,73786.5,2.51,-40.03,-40.09,0,*74
1510059963.08,20107,13.38,73790.0,2.57,-39.47,-39.47,0,*79
1510059964.34,20108,13.38,73788.8,2.53,-39.59,-39.59,0,*72
1510059965.6,20109,13.38,73788.5,2.53,-39.59,-39.53,0,*79
1510059966.83,20110,13.38,73790.8,2.57,-39.79,-39.65,0,*72
1510059968.06,20111,13.38,73788.8,2.53,-39.35,-39.15,0,*78
1510059969.28,20112,13.38,73790.5,2.57,-39.53,-39.65,0,*78
1510059970.53,20113,13.38,73788.3,2.57,-39.71,-39.53,0,*7C
1510059971.76,20114,13.38,73786.3,2.57,-40.09,-40.15,0,*76
1510059972.97,20115,13.38,73788.5,2.57,-39.65,-39.65,0,*7A
1510059974.19,20116,13.38,73788.0,2.53,-39.97,-40.03,0,*7E
1510059975.4,20117,13.38,73790.5,2.57,-40.15,-40.15,0,*78
1510059976.66,20118,13.38,73790.5,2.53,-39.79,-39.71,0,*7B
1510059977.87,20119,13.38,73792.8,2.57,-39.53,-39.47,0,*73
1510059979.13,20120,13.38,73794.5,2.57,-39.79,-39.79,0,*7C
1510059980.39,20121,13.38,73794.5,2.57,-39.79,-39.79,0,*7D
1510059981.62,20122,13.38,73794.0,2.57,-39.65,-39.53,0,*7B
1510059982.84,20123,13.38,73794.5,2.57,-39.91,-39.97,0,*79
1510059984.11,20124,13.38,73798.8,2.57,-39.79,-39.79,0,*78
1510059985.34,20125,13.38,73796.8,2.57,-39.91,-39.79,0,*7F
1510059986.59,20126,13.38,73798.3,2.57,-40.09,-40.29,0,*78
1510059987.8,20127,13.38,73796.3,2.57,-40.15,-40.15,0,*7B
1510059989.06,20128,13.38,73792.8,2.53,-39.79,-39.71,0,*78
1510059990.29,20129,13.38,73792.3,2.57,-39.91,-39.79,0,*73
1510059991.52,20130,13.38,73792.0,2.53,-39.71,-39.85,0,*72
1510059992.74,20131,13.38,73792.3,2.57,-39.65,-39.53,0,*79
1510059993.99,20132,13.38,73794.3,2.57,-39.97,-39.97,0,*7F
1510059995.22,20133,13.38,73790.3,2.57,-39.91,-39.79,0,*78
1510059996.47,20134,13.38,73792.0,2.57,-39.97,-40.09,0,*70
1510059997.73,20135,13.38,73792.3,2.57,-39.79,-39.79,0,*78
1510059998.96,20136,13.38,73792.8,2.57,-39.91,-39.71,0,*75
1510060000.18,20137,13.38,73794.5,2.59,-39.47,-39.35,0,*71
1510060001.46,20138,13.38,73792.5,2.59,-39.71,-39.71,0,*7B
1510060002.7,20139,13.38,73794.5,2.59,-39.53,-39.47,0,*7F
1510060003.95,20140,13.38,73794.8,2.59,-39.35,-39.29,0,*79
1510060005.17,20141,13.38,73794.3,2.59,-39.35,-39.35,0,*75
1510060006.39,20142,13.38,73796.5,2.61,-39.59,-39.47,0,*72
1510060007.61,20143,13.38,73798.3,2.61,-39.47,-39.41,0,*7A
1510060008.83,20144,13.38,73796.8,2.61,-39.47,-39.41,0,*7D
1510060010.11,20145,13.38,73802.0,2.59,-39.71,-39.71,0,*71
1510060011.34,20146,13.38,73796.5,2.61,-39.65,-39.59,0,*76
1510060012.59,20147,13.38,73796.3,2.61,-39.41,-39.29,0,*76
1510060013.84,20148,13.38,73798.0,2.61,-39.41,-39.29,0,*79
1510060015.08,20149,13.38,73792.5,2.61,-39.29,-39.23,0,*7C
1510060016.33,20150,13.38,73796.3,2.63,-39.47,-39.59,0,*73
1510060017.58,20151,13.38,73796.3,2.63,-40.03,-40.09,0,*77
1510060018.83,20152,13.38,73794.3,2.63,-39.85,-39.71,0,*75
1510060020.11,20153,13.38,73796.0,2.63,-39.71,-39.71,0,*7F
1510060021.33,20154,13.38,73790.3,2.63,-39.85,-39.91,0,*7D
1510060022.61,20155,13.38,73794.8,2.63,-40.09,-40.09,0,*79
1510060023.84,20156,13.38,73792.3,2.63,-39.91,-39.91,0,*7A
1510060025.12,20157,13.38,73792.0,2.63,-39.71,-39.59,0,*71
1510060026.37,20158,13.38,73788.8,2.63,-40.03,-40.09,0,*7E
1510060027.64,20159,13.38,73788.0,2.63,-40.59,-40.59,0,*75
1510060028.9,20160,13.38,73790.0,2.65,-39.79,-39.97,0,*79
1510060030.13,20161,13.38,73790.5,2.65,-39.65,-39.71,0,*7D
1510060031.35,20162,13.38,73788.3,2.63,-40.03,-39.91,0,*78
1510060032.57,20163,13.38,73790.3,2.63,-39.85,-40.03,0,*7C
1510060033.8,20164,13.38,73792.3,2.63,-39.91,-39.91,0,*7B
1510060035.08,20165,13.38,73792.8,2.63,-39.71,-39.71,0,*7A
1510060036.31,20166,13.38,73794.0,2.63,-39.91,-39.91,0,*79
1510060037.52,20167,13.38,73792.0,2.65,-40.15,-40.35,0,*7C
1510060038.74,20168,13.38,73792.5,2.63,-39.65,-39.47,0,*77
1510060039.98,20169,13.38,73788.8,2.63,-40.03,-40.09,0,*7C
1510060041.24,20170,13.38,73790.3,2.63,-39.91,-40.09,0,*71
1510060042.47,20171,13.38,73792.8,2.63,-41.03,-41.11,0,*7C
1510060043.74,20172,13.38,73792.0,2.63,-40.59,-40.59,0,*7C
1510060044.99,20173,13.38,73792.3,2.63,-40.03,-40.09,0,*77
1510060046.22,20174,13.38,73788.5,2.63,-39.91,-39.91,0,*7A
1510060047.48,20175,13.38,73792.3,2.63,-40.29,-40.29,0,*7B
1510060048.76,20176,13.38,73796.0,2.63,-40.09,-40.09,0,*78
1510060049.99,20177,13.38,73792.0,2.61,-40.03,-40.09,0,*71
1510060051.21,20178,13.38,73794.5,2.61,-39.85,-39.71,0,*7F
1510060052.47,20179,13.38,73794.8,2.63,-39.91,-39.71,0,*79
1510060053.71,20180,13.38,73794.5,2.63,-39.47,-39.41,0,*77
1510060054.95,20181,13.38,73798.0,2.65,-39.79,-39.65,0,*7B
1510060056.18,20182,13.38,73798.0,2.63,-39.85,-39.91,0,*76
1510060057.38,20183,13.38,73796.8,2.65,-39.85,-39.85,0,*74
1510060058.65,20184,13.38,73800.8,2.63,-39.41,-39.53,0,*76
1510060059.87,20185,13.38,73798.3,2.65,-39.41,-39.35,0,*71
1510060061.1,20186,13.38,73796.8,2.65,-39.65,-39.59,0,*7E
1510060062.36,20187,13.38,73802.0,2.65,-39.71,-39.59,0,*7A
1510060063.61,20188,13.38,73802.0,2.63,-39.65,-39.59,0,*76
1510060064.83,20189,13.38,73800.3,2.65,-39.97,-40.03,0,*7D
1510060066.08,20190,13.38,73800.8,2.65,-39.97,-39.97,0,*76
1510060067.33,20191,13.38,73800.5,2.65,-39.41,-39.23,0,*73
1510060068.57,20192,13.38,73802.8,2.67,-39.35,-39.29,0,*7B
1510060069.79,20193,13.38,73804.8,2.67,-39.47,-39.35,0,*72
1510060071.07,20194,13.38,73800.8,2.67,-40.09,-39.97,0,*79
1510060072.33,20195,13.38,73802.0,2.67,-39.91,-39.79,0,*77
1510060073.62,20196,13.38,73796.5,2.69,-39.59,-39.79,0,*7E
1510060074.87,20197,13.38,73802.8,2.67,-40.29,-40.15,0,*7C
1510060076.12,20198,13.38,73802.8,2.67,-40.15,-40.29,0,*73
1510060077.36,20199,13.38,73800.0,2.67,-40.15,-40.15,0,*7D
1510060078.61,20200,13.38,73802.0,2.67,-41.11,-40.97,0,*71
1510060079.89,20201,13.38,73798.8,2.67,-41.67,-41.55,0,*7E
1510060081.1,20202,13.38,73798.3,2.65,-41.41,-41.41,0,*7E
1510060082.33,20203,13.38,73798.0,2.63,-43.41,-43.41,0,*79
1510060083.59,20204,13.38,73796.3,2.59,-42.75,-42.95,0,*79
1510060084.81,20205,13.38,73796.0,2.59,-42.13,-42.13,0,*76
1510060086.06,20206,13.38,73796.3,2.59,-41.93,-41.87,0,*70
1510060087.29,20207,13.38,73800.3,2.59,-40.47,-40.53,0,*71
1510060088.55,20208,13.38,73794.5,2.57,-41.67,-41.55,0,*74
1510060089.8,20209,13.38,73800.5,2.53,-42.31,-42.31,0,*70
1510060091.02,20210,13.38,73798.0,2.53,-40.91,-40.91,0,*78
1510060092.24,20211,13.38,73800.0,2.53,-40.73,-40.79,0,*73
1510060093.49,20212,13.38,73798.5,2.53,-41.55,-41.55,0,*7A
1510060094.75,20213,13.38,73802.5,2.53,-40.41,-40.41,0,*7B
1510060096.01,20214,13.38,73796.5,2.53,-39.79,-39.79,0,*7C
1510060097.23,20215,13.38,73800.3,2.57,-39.53,-39.35,0,*79
1510060098.47,20216,13.38,73798.0,2.53,-39.53,-39.41,0,*7D
1510060099.7,20217,13.38,73802.0,2.57,-39.65,-39.71,0,*7E
1510060100.95,20218,13.38,73800.8,2.57,-39.97,-40.09,0,*7D
1510060102.15,20219,13.38,73798.3,2.57,-40.47,-40.53,0,*70
1510060103.4,20220,13.38,73798.8,2.57,-40.09,-39.97,0,*76